Regional Weather Roundup
Issued by NWS

Home | Current Version | Previous Version | Text Only | Print | Product List | Glossary On
Versions: 1 2 3 4 5 6 7 8 9 10 11 12 13 14 15 16 17 18 19 20 21 22 23 24 25 26 27 28 29 30 31 32 33 34 35 36 37 38 39 40 41 42 43 44 45 46 47 48 49 50
000
ASUS43 KOAX 310610
RWRNE

WEATHER ROUNDUP FOR NEBRASKA
NATIONAL WEATHER SERVICE OMAHA NE
100 AM CDT SAT JUL 31 2021

NOTES: SATELLITE DATA IS BEING USED TO AUGMENT CLOUD COVER ABOVE
       12000 FEET.
       "FAIR" INDICATES FEW OR NO CLOUDS BELOW 12,000 FEET WITH NO
       SIGNIFICANT WEATHER AND/OR OBSTRUCTIONS TO VISIBILITY.


NEZ001>004-019>022-054>056-310700-
NEBRASKA PANHANDLE

CITY           SKY/WX    TMP DP  RH WIND       PRES   REMARKS
SCOTTSBLUFF    CLOUDY    73  59  61 NW16G23   30.24S HAZE
6HR MIN TEMP:  72; 6HR MAX TEMP:  88; 6HR PCP: TRACE;

ALLIANCE       CLOUDY    69  65  86 N9        30.21R FOG
6HR MIN TEMP:  69; 6HR MAX TEMP:  90;

CHADRON        CLOUDY    68  60  75 NW3       30.23R HAZE
6HR MIN TEMP:  68; 6HR MAX TEMP:  84;

GORDON         MOCLDY    65  63  93 NE6       30.23R FOG
6HR MIN TEMP:  64; 6HR MAX TEMP:  80;

KIMBALL        CLOUDY    70  58  67 N15       30.27R
SIDNEY         CLOUDY    73  63  70 N13       30.19R HAZE
6HR MIN TEMP:  71; 6HR MAX TEMP:  92;

$$

NEZ057>060-069>072-079>082-310700-
SOUTHWEST NEBRASKA

CITY           SKY/WX    TMP DP  RH WIND       PRES   REMARKS
NORTH PLATTE   CLOUDY    74  68  81 NE21G30   30.10R
6HR MIN TEMP:  74; 6HR MAX TEMP:  89;

IMPERIAL       MOCLDY    74  62  66 N6        30.07R
6HR MIN TEMP:  74; 6HR MAX TEMP:  98;

LEXINGTON      CLOUDY    75  73  93 NE12      30.06S FOG
MCCOOK         MOCLDY    77  62  59 CALM      30.02R
6HR MIN TEMP:  77; 6HR MAX TEMP:  95;

OGALLALA       DRIZZLE   76  69  78 NE17G24   30.12R
$$

NEZ005>010-023>029-035>040-094-310700-
NORTH CENTRAL NEBRASKA

CITY           SKY/WX    TMP DP  RH WIND       PRES   REMARKS
VALENTINE      CLOUDY    68  60  75 E3        30.18S HAZE
6HR MIN TEMP:  68; 6HR MAX TEMP:  77;

AINSWORTH      CLOUDY    62  60  92 CALM      30.17S FOG
BROKEN BOW     CLOUDY    73  65  75 N13G24    30.10S
6HR MIN TEMP:  70; 6HR MAX TEMP:  85;

O`NEILL        DRIZZLE   63  61  93 CALM      30.16R
ORD            TSTM      69  66  90 N10       30.10F FOG
6HR MIN TEMP:  70; 6HR MAX TEMP:  83;

THEDFORD       TSTM      67  66  97 NE7       30.18F
$$

NEZ041-046>049-061>064-073>077-083>087-310700-
SOUTH CENTRAL NEBRASKA

CITY           SKY/WX    TMP DP  RH WIND       PRES   REMARKS
GRAND ISLAND   CLOUDY    72  66  81 N21G32    30.09R HAZE
6HR MIN TEMP:  73; 6HR MAX TEMP:  89;

AURORA         CLOUDY    73  69  90 NE10      30.05R FOG
HASTINGS       MOCLDY    75  73  93 E6        30.03F FOG
6HR MIN TEMP:  75; 6HR MAX TEMP:  92;

HEBRON         MOCLDY    76  71  85 CALM      29.98F
HOLDREGE       MOCLDY    78  69  73 E6        30.02F
KEARNEY        CLOUDY    73  70  90 N16       30.08R FOG
YORK             N/A     72  70  94 N12       30.04R FOG
$$

NEZ011>018-030>034-042>045-310700-
NORTHEAST NEBRASKA

CITY           SKY/WX    TMP DP  RH WIND       PRES   REMARKS
NORFOLK        LGT RAIN  65  60  84 NE10      30.08F
6HR MIN TEMP:  65; 6HR MAX TEMP:  76; 6HR PCP:  0.05;

ALBION         TSTM      67  67  99 SE3       30.07F
BLAIR          CLOUDY    70  67  91 NE14      30.05R THUNDER
COLUMBUS       CLOUDY    69  68  96 NE12      30.05F
FREMONT        CLOUDY    70  66  87 NE13G26   30.06R THUNDER
TEKAMAH        HVY RAIN  67  64  90 NE8       30.07R FOG
6HR MIN TEMP:  67; 6HR MAX TEMP:  78; 6HR PCP:  0.52;

WAYNE          CLOUDY    63  61  93 NE8       30.10F FOG
$$

NEZ050>053-065>068-078-088>093-310700-
SOUTHEAST NEBRASKA

CITY           SKY/WX    TMP DP  RH WIND       PRES   REMARKS
LINCOLN        MOCLDY    75  70  84 E12       29.98F
6HR MIN TEMP:  75; 6HR MAX TEMP:  90; 6HR PCP: TRACE;

OMAHA EPPLEY   CLOUDY    73  68  84 NE7       30.02F
6HR MIN TEMP:  73; 6HR MAX TEMP:  83;

BEATRICE       PTCLDY    79  77  94 SE7       29.97F
FALLS CITY     CLOUDY    78  74  87 E10       29.99F
6HR MIN TEMP:  78; 6HR MAX TEMP:  86;

NEBRASKA CITY  MOCLDY    73  73 100 E8        29.99F
$$

NEZ044-045-051>053-067-310700-
OMAHA AREA

CITY           SKY/WX    TMP DP  RH WIND       PRES   REMARKS
OMAHA EPPLEY   CLOUDY    73  68  84 NE7       30.02F
6HR MIN TEMP:  73; 6HR MAX TEMP:  83;

BLAIR          CLOUDY    70  67  91 NE14      30.05R THUNDER
FREMONT        CLOUDY    70  66  87 NE13G26   30.06R THUNDER
MILLARD        CLOUDY    74  68  83 E6        30.01S
OFFUTT AFB     MOCLDY    72  69  89 E6        30.03F
$$



USA.gov is the U.S. government's official web portal to all federal, state and local government web resources and services.